NSZ611 EKYT-EKCH

Flight info

Callsign NSZ611
Flight time 0h 32m
Altitude 21000
Route AAL M725 ADSEN DCT TNO
Aircraft B738/M-SDE2E3FGHIRWXY/LB1

Departure

Time 2026-05-08 13:23
Airport Aalborg Airport (EKYT)

Arrival

Time 2026-05-08 13:56
Airport Copenhagen Kastrup Airport (EKCH)
Time Latitude Longitude Altitude Speed Heading
2026-05-08 12:34 57.08673 9.87013 19 ft 0 kts 55°
2026-05-08 13:09 57.08667 9.86998 19 ft 2 kts 52°
2026-05-08 13:10 57.08654 9.86974 19 ft 3 kts 37°
2026-05-08 13:10 57.08643 9.86962 19 ft 3 kts 25°
2026-05-08 13:10 57.08623 9.86951 19 ft 3 kts
2026-05-08 13:10 57.08618 9.86951 19 ft 0 kts
2026-05-08 13:13 57.08619 9.86951 19 ft 0 kts
2026-05-08 13:17 57.08646 9.86934 19 ft 14 kts 324°
2026-05-08 13:17 57.08722 9.86785 19 ft 15 kts 312°
2026-05-08 13:17 57.08794 9.86661 19 ft 13 kts 322°
2026-05-08 13:17 57.08872 9.86549 19 ft 15 kts 322°
2026-05-08 13:18 57.08957 9.86423 19 ft 17 kts 321°
2026-05-08 13:18 57.09054 9.86290 19 ft 18 kts 323°
2026-05-08 13:18 57.09157 9.86147 19 ft 19 kts 322°
2026-05-08 13:18 57.09263 9.85998 19 ft 19 kts 323°
2026-05-08 13:19 57.09333 9.85828 19 ft 16 kts 271°
2026-05-08 13:19 57.09326 9.85617 19 ft 21 kts 268°
2026-05-08 13:19 57.09306 9.85325 19 ft 24 kts 262°
2026-05-08 13:19 57.09285 9.85003 19 ft 26 kts 263°
2026-05-08 13:20 57.09262 9.84657 19 ft 26 kts 264°
2026-05-08 13:20 57.09305 9.84425 19 ft 9 kts 324°
2026-05-08 13:20 57.09308 9.84421 19 ft 0 kts 324°
2026-05-08 13:22 57.09319 9.84406 19 ft 10 kts 322°
2026-05-08 13:22 57.09427 9.84320 19 ft 17 kts 45°
2026-05-08 13:22 57.09454 9.84563 19 ft 30 kts 81°
2026-05-08 13:23 57.09497 9.85318 19 ft 93 kts 82°
2026-05-08 13:23 57.09585 9.86884 45 ft 149 kts 86°
2026-05-08 13:23 57.09681 9.88886 574 ft 161 kts 86°
2026-05-08 13:23 57.09775 9.90951 1218 ft 166 kts 84°
2026-05-08 13:24 57.09964 9.93146 1702 ft 182 kts 81°
2026-05-08 13:24 57.10206 9.95532 2139 ft 198 kts 81°
2026-05-08 13:24 57.10480 9.98108 2584 ft 213 kts 81°
2026-05-08 13:24 57.10766 10.00877 3005 ft 228 kts 84°
2026-05-08 13:25 57.10520 10.03832 3312 ft 248 kts 119°
2026-05-08 13:25 57.09352 10.06143 4241 ft 251 kts 149°
2026-05-08 13:25 57.07789 10.07589 5261 ft 253 kts 155°
2026-05-08 13:25 57.06198 10.09043 6244 ft 257 kts 152°
2026-05-08 13:26 57.04619 10.10631 7194 ft 261 kts 151°
2026-05-08 13:26 57.03032 10.12298 8113 ft 265 kts 150°
2026-05-08 13:26 57.01428 10.14002 9024 ft 268 kts 150°
2026-05-08 13:26 56.99801 10.15737 9911 ft 272 kts 150°
2026-05-08 13:27 56.98148 10.17505 10677 ft 282 kts 150°
2026-05-08 13:27 56.96404 10.19376 11149 ft 299 kts 150°
2026-05-08 13:27 56.94587 10.21335 11595 ft 315 kts 150°
2026-05-08 13:27 56.92648 10.23436 12027 ft 332 kts 150°
2026-05-08 13:28 56.90602 10.25651 12438 ft 350 kts 150°
2026-05-08 13:28 56.88471 10.27955 13008 ft 360 kts 150°
2026-05-08 13:28 56.86299 10.30302 13761 ft 365 kts 150°
2026-05-08 13:28 56.84093 10.32679 14524 ft 370 kts 150°
2026-05-08 13:29 56.81860 10.35083 15291 ft 375 kts 150°
2026-05-08 13:29 56.79600 10.37513 16049 ft 379 kts 150°
2026-05-08 13:29 56.77312 10.39969 16779 ft 384 kts 150°
2026-05-08 13:29 56.75000 10.42448 17488 ft 388 kts 150°
2026-05-08 13:30 56.72686 10.44925 18186 ft 392 kts 150°
2026-05-08 13:30 56.70316 10.47458 18871 ft 396 kts 150°
2026-05-08 13:30 56.67926 10.50009 19535 ft 400 kts 150°
2026-05-08 13:30 56.65509 10.52585 20180 ft 404 kts 150°
2026-05-08 13:31 56.63071 10.55179 20815 ft 408 kts 150°
2026-05-08 13:31 56.60605 10.57800 21229 ft 416 kts 150°
2026-05-08 13:31 56.58097 10.60460 21260 ft 415 kts 150°
2026-05-08 13:31 56.55615 10.63089 21265 ft 412 kts 150°
2026-05-08 13:32 56.53138 10.65709 21269 ft 411 kts 150°
2026-05-08 13:32 56.50672 10.68313 21269 ft 410 kts 150°
2026-05-08 13:32 56.48200 10.70919 21270 ft 410 kts 150°
2026-05-08 13:32 56.45736 10.73514 21270 ft 410 kts 150°
2026-05-08 13:33 56.43268 10.76108 21271 ft 410 kts 150°
2026-05-08 13:33 56.40805 10.78693 21271 ft 410 kts 150°
2026-05-08 13:33 56.38335 10.81281 21271 ft 410 kts 150°
2026-05-08 13:33 56.35872 10.83859 21271 ft 410 kts 150°
2026-05-08 13:34 56.33428 10.86412 21046 ft 412 kts 150°
2026-05-08 13:34 56.30966 10.88982 20648 ft 407 kts 150°
2026-05-08 13:34 56.28525 10.91525 20248 ft 404 kts 150°
2026-05-08 13:34 56.26094 10.94053 19847 ft 403 kts 150°
2026-05-08 13:35 56.23679 10.96561 19447 ft 399 kts 150°
2026-05-08 13:35 56.21276 10.99053 19047 ft 397 kts 150°
2026-05-08 13:35 56.18891 11.01524 18649 ft 395 kts 150°
2026-05-08 13:35 56.16510 11.03985 18249 ft 394 kts 150°
2026-05-08 13:36 56.14143 11.06430 17849 ft 391 kts 150°
2026-05-08 13:36 56.11791 11.08855 17448 ft 388 kts 150°
2026-05-08 13:36 56.09456 11.11260 17050 ft 386 kts 150°
2026-05-08 13:36 56.07132 11.13649 16652 ft 385 kts 150°
2026-05-08 13:37 56.04815 11.16028 16252 ft 382 kts 150°
2026-05-08 13:37 56.02517 11.18384 15852 ft 380 kts 150°
2026-05-08 13:37 56.00233 11.20723 15454 ft 377 kts 150°
2026-05-08 13:37 55.97960 11.23048 15054 ft 376 kts 150°
2026-05-08 13:38 55.95690 11.25365 14653 ft 374 kts 150°
2026-05-08 13:38 55.93469 11.27631 14258 ft 371 kts 150°
2026-05-08 13:38 55.91234 11.29907 13858 ft 368 kts 150°
2026-05-08 13:38 55.89015 11.32164 13458 ft 366 kts 150°
2026-05-08 13:39 55.86806 11.34407 13059 ft 364 kts 150°
2026-05-08 13:39 55.84611 11.36634 12659 ft 362 kts 150°
2026-05-08 13:39 55.82428 11.38845 12259 ft 360 kts 150°
2026-05-08 13:39 55.80384 11.41387 11851 ft 356 kts 138°
2026-05-08 13:40 55.78777 11.44695 11447 ft 352 kts 122°
2026-05-08 13:40 55.77897 11.48668 11042 ft 343 kts 101°
2026-05-08 13:40 55.77865 11.52833 10648 ft 334 kts 86°
2026-05-08 13:40 55.78091 11.56885 10249 ft 325 kts 85°
2026-05-08 13:41 55.78321 11.60785 9851 ft 317 kts 85°
2026-05-08 13:41 55.78545 11.64628 9450 ft 308 kts 85°
2026-05-08 13:41 55.78758 11.68372 9049 ft 302 kts 85°
2026-05-08 13:41 55.78964 11.72055 8648 ft 298 kts 85°
2026-05-08 13:42 55.79162 11.75696 8327 ft 292 kts 85°
2026-05-08 13:42 55.79352 11.79310 8304 ft 298 kts 85°
2026-05-08 13:42 55.79545 11.82983 8054 ft 299 kts 85°
2026-05-08 13:42 55.79737 11.86651 7780 ft 294 kts 85°
2026-05-08 13:43 55.79922 11.90208 7501 ft 283 kts 85°
2026-05-08 13:43 55.80099 11.93637 7222 ft 274 kts 85°
2026-05-08 13:43 55.80270 11.96955 6945 ft 266 kts 85°
2026-05-08 13:43 55.80435 12.00187 6668 ft 259 kts 85°
2026-05-08 13:44 55.80595 12.03330 6391 ft 252 kts 86°
2026-05-08 13:44 55.80751 12.06399 6120 ft 246 kts 86°
2026-05-08 13:44 55.80901 12.09396 5843 ft 241 kts 86°
2026-05-08 13:44 55.81048 12.12334 5563 ft 236 kts 86°
2026-05-08 13:45 55.81190 12.15176 5290 ft 232 kts 86°
2026-05-08 13:45 55.81331 12.18005 5031 ft 227 kts 86°
2026-05-08 13:45 55.81466 12.20746 5005 ft 221 kts 86°
2026-05-08 13:45 55.81601 12.23487 5002 ft 224 kts 86°
2026-05-08 13:46 55.81736 12.26238 5002 ft 223 kts 86°
2026-05-08 13:46 55.81869 12.28991 4936 ft 226 kts 86°
2026-05-08 13:46 55.81902 12.31804 4728 ft 228 kts 91°
2026-05-08 13:46 55.81874 12.34587 4497 ft 222 kts 92°
2026-05-08 13:47 55.81839 12.37300 4281 ft 215 kts 92°
2026-05-08 13:47 55.81804 12.39919 4064 ft 208 kts 92°
2026-05-08 13:47 55.81772 12.42447 3824 ft 201 kts 92°
2026-05-08 13:47 55.81742 12.44897 3584 ft 195 kts 92°
2026-05-08 13:48 55.81714 12.47268 3345 ft 189 kts 92°
2026-05-08 13:48 55.81689 12.49564 3109 ft 183 kts 92°
2026-05-08 13:48 55.81666 12.51801 3019 ft 182 kts 92°
2026-05-08 13:48 55.81642 12.54068 3005 ft 183 kts 92°
2026-05-08 13:49 55.81618 12.56329 3001 ft 182 kts 92°
2026-05-08 13:49 55.81593 12.58573 2999 ft 181 kts 92°
2026-05-08 13:49 55.81567 12.60814 2998 ft 181 kts 92°
2026-05-08 13:49 55.81534 12.63053 2995 ft 181 kts 95°
2026-05-08 13:50 55.81244 12.65218 2991 ft 180 kts 109°
2026-05-08 13:50 55.80801 12.67301 2996 ft 180 kts 111°
2026-05-08 13:50 55.80328 12.69369 2994 ft 180 kts 112°
2026-05-08 13:50 55.79849 12.71429 2994 ft 180 kts 112°
2026-05-08 13:51 55.79375 12.73459 2994 ft 180 kts 112°
2026-05-08 13:51 55.78893 12.75515 2993 ft 180 kts 112°
2026-05-08 13:51 55.78407 12.77588 2993 ft 179 kts 112°
2026-05-08 13:51 55.77931 12.79606 2993 ft 179 kts 112°
2026-05-08 13:52 55.77347 12.81556 2955 ft 182 kts 132°
2026-05-08 13:52 55.76209 12.82566 2700 ft 186 kts 163°
2026-05-08 13:52 55.74941 12.82969 2472 ft 184 kts 170°
2026-05-08 13:52 55.73656 12.82949 2232 ft 186 kts 188°
2026-05-08 13:53 55.72470 12.82086 2044 ft 184 kts 210°
2026-05-08 13:53 55.71422 12.80683 2079 ft 191 kts 218°
2026-05-08 13:53 55.70446 12.79096 2004 ft 190 kts 221°
2026-05-08 13:53 55.69477 12.77512 1813 ft 189 kts 220°
2026-05-08 13:54 55.68493 12.75976 1578 ft 187 kts 219°
2026-05-08 13:54 55.67516 12.74472 1337 ft 184 kts 220°
2026-05-08 13:54 55.66566 12.73002 1097 ft 176 kts 220°
2026-05-08 13:54 55.65707 12.71665 876 ft 154 kts 220°
2026-05-08 13:55 55.64920 12.70442 672 ft 147 kts 220°
2026-05-08 13:55 55.64161 12.69265 481 ft 143 kts 220°
2026-05-08 13:55 55.62674 12.66961 108 ft 143 kts 220°
2026-05-08 13:56 55.61981 12.65887 27 ft 108 kts 221°
2026-05-08 13:56 55.61586 12.65277 26 ft 45 kts 221°
2026-05-08 13:56 55.61401 12.64987 26 ft 32 kts 220°
2026-05-08 13:56 55.61278 12.64708 26 ft 26 kts 243°
2026-05-08 13:57 55.61213 12.64405 26 ft 28 kts 251°
2026-05-08 13:57 55.61225 12.64129 26 ft 21 kts 332°
2026-05-08 13:57 55.61345 12.64184 26 ft 18 kts 33°
2026-05-08 13:57 55.61446 12.64299 26 ft 18 kts 33°
2026-05-08 13:58 55.61519 12.64381 26 ft 20 kts 33°
2026-05-08 13:58 55.61637 12.64524 26 ft 22 kts 34°
2026-05-08 13:58 55.61770 12.64671 26 ft 23 kts 32°
2026-05-08 13:58 55.61910 12.64833 26 ft 22 kts 32°
2026-05-08 13:59 55.62013 12.64951 26 ft 18 kts 33°
2026-05-08 13:59 55.62091 12.65039 26 ft 0 kts 32°
2026-05-08 13:59 55.62095 12.65044 26 ft 2 kts 32°
2026-05-08 13:59 55.62134 12.65088 26 ft 17 kts 33°
2026-05-08 14:00 55.62256 12.65115 26 ft 19 kts 314°
2026-05-08 14:00 55.62339 12.64916 26 ft 21 kts 303°
2026-05-08 14:00 55.62419 12.64691 26 ft 22 kts 302°
2026-05-08 14:00 55.62481 12.64513 26 ft 8 kts 297°
2026-05-08 14:01 55.62533 12.64368 26 ft 24 kts 309°
2026-05-08 14:01 55.62628 12.64301 26 ft 14 kts
2026-05-08 14:01 55.62710 12.64323 26 ft 12 kts 326°
2026-05-08 14:01 55.62734 12.64272 26 ft 0 kts 305°